Weather History for KSAT - March, 2013

Change the Weather History Date:

Wednesday, March 13, 2013

  Actual Average Record
Temperature  
Mean Temperature 61 °F 62 °F  
Max Temperature 76 °F 73 °F 93 °F (1971)
Min Temperature 46 °F 50 °F 23 °F (1948)
Degree Days  
Heating Degree Days 4 5  
Month to date heating degree days 92 84  
Since 1 July heating degree days 1086 1385  
Cooling Degree Days 0 2  
Month to date cooling degree days 6 21  
Year to date cooling degree days 46 47  
Growing Degree Days 10 (Base 50)    
Moisture  
Dew Point 40 °F    
Average Humidity 52    
Maximum Humidity 80    
Minimum Humidity 23    
Precipitation  
Precipitation 0.00 in 0.07 in 1.35 in (2007)
Month to date precipitation 0.76 0.98  
Year to date precipitation 3.69 4.53  
Snow  
Snow 0.00 in - - ()
Month to date snowfall 0.0  
Since 1 July snowfall T  
Snow Depth 0.00 in    
Sea Level Pressure  
Sea Level Pressure 30.30 in    
Wind  
Wind Speed 6 mph (SE)    
Max Wind Speed 17 mph    
Max Gust Speed 22 mph    
Visibility 10 miles    
Events      
T = Trace of Precipitation, MM = Missing Value Source: NWS Daily Summary

Daily Weather History Graph

Daily Weather History Graph

Search for Another Location

Airport or City:

Trip Planner

Search our weather history database for the weather conditions in past years. The results will help you decide how hot, cold, wet, or windy it might be!

Date:

Astronomy

Mar. 13, 2013 Rise Set
Actual Time 7:45 AM CDT 7:41 PM CDT
Civil Twilight 7:21 AM CDT 8:04 PM CDT
Nautical Twilight 6:54 AM CDT 8:32 PM CDT
Astronomical Twilight 6:26 AM CDT 9:00 PM CDT
Moon 8:37 AM CDT (3/13) 9:44 PM CDT (3/13)
Length of Visible Light 12h 43m
Length of Day
11h 55m
Waxing Crescent, 4% of the Moon is Illuminated
Mar 13
Waxing Crescent
Mar 19
First Quarter
Mar 27
Full
Apr 2
Last Quarter
Apr 10
New

Hourly Weather History & Observations

Time (CDT) Temp. Dew Point Humidity Pressure Visibility Wind Dir Wind Speed Gust Speed Precip Events Conditions
12:51 AM 57.9 °F 39.0 °F 49% 30.21 in 10.0 mi SSE 5.8 mph - N/A   Clear
1:51 AM 55.9 °F 39.9 °F 55% 30.23 in 10.0 mi SE 3.5 mph - N/A   Clear
2:51 AM 52.0 °F 39.9 °F 63% 30.25 in 10.0 mi Calm Calm - N/A   Clear
3:51 AM 50.0 °F 41.0 °F 71% 30.26 in 10.0 mi Calm Calm - N/A   Clear
4:51 AM 50.0 °F 39.9 °F 68% 30.26 in 10.0 mi Calm Calm - N/A   Clear
5:51 AM 48.9 °F 39.9 °F 71% 30.29 in 10.0 mi NNE 3.5 mph - N/A   Clear
6:51 AM 46.0 °F 39.0 °F 76% 30.30 in 10.0 mi Calm Calm - N/A   Clear
7:51 AM 48.0 °F 42.1 °F 80% 30.33 in 10.0 mi Calm Calm - N/A   Scattered Clouds
8:51 AM 52.0 °F 45.0 °F 77% 30.35 in 9.0 mi Calm Calm - N/A   Partly Cloudy
9:51 AM 57.9 °F 46.0 °F 65% 30.39 in 10.0 mi ENE 5.8 mph - N/A   Partly Cloudy
10:51 AM 62.1 °F 45.0 °F 53% 30.40 in 10.0 mi ENE 3.5 mph - N/A   Partly Cloudy
11:51 AM 66.9 °F 43.0 °F 42% 30.40 in 10.0 mi SE 8.1 mph - N/A   Partly Cloudy
12:51 PM 69.1 °F 37.9 °F 32% 30.38 in 10.0 mi ESE 10.4 mph - N/A   Partly Cloudy
1:51 PM 72.0 °F 37.9 °F 29% 30.34 in 10.0 mi East 4.6 mph - N/A   Partly Cloudy
2:51 PM 72.0 °F 37.0 °F 28% 30.31 in 10.0 mi Variable 3.5 mph - N/A   Partly Cloudy
3:51 PM 75.0 °F 37.0 °F 25% 30.27 in 10.0 mi SSE 12.7 mph 18.4 mph N/A   Partly Cloudy
4:51 PM 75.0 °F 36.0 °F 24% 30.26 in 10.0 mi ESE 9.2 mph - N/A   Clear
5:51 PM 75.0 °F 37.0 °F 25% 30.25 in 10.0 mi South 6.9 mph - N/A   Clear
6:51 PM 73.0 °F 37.9 °F 28% 30.25 in 10.0 mi SE 11.5 mph - N/A   Clear
7:51 PM 66.0 °F 39.0 °F 37% 30.26 in 10.0 mi SE 8.1 mph - N/A   Clear
8:51 PM 62.1 °F 39.9 °F 44% 30.27 in 10.0 mi ESE 6.9 mph - N/A   Clear
9:51 PM 64.0 °F 37.9 °F 38% 30.29 in 10.0 mi SSE 16.1 mph 21.9 mph N/A   Clear
10:51 PM 62.1 °F 37.0 °F 39% 30.32 in 10.0 mi SSE 10.4 mph - N/A   Clear
11:51 PM 57.9 °F 37.0 °F 46% 30.33 in 10.0 mi SSE 10.4 mph - N/A   Clear